CAPE
0 0 0 0 0 0 0 0 0 0 0 0 0 0 0 0 0 0 0 0 0 0 0 0 0 0 0 0 0 0 0 0 0 0 3 2 1 2 1 2 4 3 4 28
0 0 0 0 0 0 0 0 0 0 0 0 0 0 0 0 0 0 0 0 0 0 0 0 0 0 0 0 0 0 0 0 0 0 0 0 2 1 2 2 4 5 2 3
0 0 0 0 0 0 0 0 0 0 0 0 0 0 0 0 0 0 0 0 0 0 0 0 0 0 0 0 0 0 0 0 0 0 0 0 1 1 2 3 4 4 3 4
0 0 0 0 0 0 0 0 0 0 0 0 0 0 0 0 0 0 0 0 0 0 0 0 0 0 0 0 0 0 0 0 0 0 0 0 0 1 0 3 3 5 5 3
0 0 0 0 0 0 0 0 0 0 0 0 0 0 0 0 0 0 0 0 0 0 0 0 0 0 0 0 0 0 0 0 0 0 0 0 1 2 1 2 3 3 4 4
0 0 0 0 0 0 0 0 0 0 0 0 0 0 0 0 0 0 0 0 0 0 0 0 0 0 0 0 0 0 0 0 0 0 0 0 1 0 1 1 2 2 4 3
0 0 0 0 0 0 0 0 0 0 0 0 0 0 0 0 0 0 0 0 0 0 0 0 0 0 0 0 0 0 0 0 0 0 0 0 0 0 1 1 1 1 2 3
0 0 0 0 0 0 0 0 0 0 0 0 0 0 0 0 0 0 0 0 0 0 0 0 0 0 0 0 0 0 0 0 0 0 0 0 0 0 0 1 1 1 2 2
0 0 0 0 0 0 0 0 0 0 0 0 0 0 0 0 0 0 0 0 0 0 0 0 0 0 0 0 0 0 0 0 0 0 0 0 0 0 1 1 0 1 2 2
0 0 0 0 0 0 0 0 0 0 0 0 0 0 0 0 0 0 0 0 0 0 0 0 0 0 0 0 0 0 0 0 0 0 0 0 0 0 0 0 1 1 1 1
0 0 0 0 0 0 0 0 0 0 0 0 0 0 0 0 0 0 0 0 0 0 0 0 0 0 0 0 0 0 0 0 0 0 0 0 0 0 0 1 1 1 1 1
0 0 0 0 0 0 0 0 0 0 0 0 0 0 0 0 0 0 0 0 0 0 0 0 0 0 0 2 0 0 0 0 0 0 0 0 0 0 0 0 0 0 0 1
0 0 0 0 0 0 0 0 0 0 0 0 0 0 0 0 0 0 0 0 0 0 0 0 0 0 0 0 0 0 0 0 0 0 0 0 0 0 0 0 0 0 0 0
0 0 0 0 0 0 0 0 0 0 0 0 0 0 0 0 0 0 0 0 0 0 0 0 0 0 0 0 0 0 0 0 0 0 0 0 0 0 0 0 0 0 0 0
0 0 0 0 0 0 0 0 0 0 0 0 0 0 0 0 0 0 0 0 0 0 0 0 0 0 0 0 0 0 0 0 0 0 0 0 0 0 0 0 0 0 0 0
0 0 0 0 0 0 0 0 0 0 0 0 0 0 0 0 0 0 0 0 0 0 0 0 0 0 0 0 0 0 0 0 0 0 0 0 0 0 0 0 0 0 0 0
0 0 0 0 0 0 0 0 0 0 0 0 0 0 0 0 0 0 0 0 0 0 0 0 0 0 0 0 0 0 0 0 0 0 1 1 0 0 0 0 0 0 0 0
0 0 0 0 0 0 0 0 0 0 0 0 0 0 0 0 0 0 0 0 0 0 0 0 0 0 0 0 0 0 1 0 0 0 0 0 0 0 0 0 0 0 1 0
0 0 0 0 0 0 0 0 0 0 0 0 0 0 0 0 0 0 0 0 0 0 0 0 0 0 0 0 0 1 0 0 0 0 0 0 0 0 0 0 0 0 1 1
0 0 0 0 0 0 0 0 0 0 0 0 0 0 0 0 0 0 0 0 0 0 0 0 0 0 0 0 0 0 0 0 0 0 0 0 0 1 1 0 0 0 1 1
0 0 0 0 0 0 0 0 0 0 0 0 0 0 0 0 0 0 0 0 0 0 0 0 0 0 0 0 0 0 0 0 0 0 0 0 0 0 0 0 0 0 0 0
0 0 0 0 0 0 0 0 0 0 0 0 0 0 0 0 0 0 0 0 0 0 0 0 0 0 0 0 0 0 0 0 0 0 0 0 0 0 0 0 0 0 0 0
0 0 0 0 0 0 0 0 0 0 0 0 0 0 0 0 0 0 0 0 0 0 0 0 0 0 0 0 0 0 0 0 0 0 0 0 0 0 0 0 0 0 0 0
0 0 0 0 0 0 0 0 0 0 0 0 0 0 0 0 0 0 0 0 0 0 0 0 0 0 0 0 0 0 0 0 0 0 0 0 0 0 0 0 0 0 0 0
0 0 0 0 0 0 0 0 0 0 0 0 0 0 0 0 0 0 0 0 0 0 0 0 0 0 0 0 0 0 0 0 0 0 0 0 0 0 0 0 0 0 0 0
0 0 0 0 0 0 0 0 0 0 0 0 0 0 0 0 0 0 0 0 0 0 0 0 0 0 0 0 0 0 0 0 0 0 0 0 0 0 0 0 0 0 0 0
0 0 0 0 0 0 0 0 0 0 0 0 0 0 0 0 0 0 0 0 0 0 0 0 0 0 0 0 0 0 0 0 0 0 0 0 0 0 0 0 0 0 0 0
CIN
0 0 0 0 0 0 0 0 0 0 0 0 0 0 0 0 0 0 0 0 0 0 0 0 0 0 0 0 0 0 0 0 0 0 0 0 0 0 0 0 0 0 0 -17
0 0 0 0 0 0 0 0 0 0 0 0 0 0 0 0 0 0 0 0 0 0 0 0 0 0 0 0 0 0 0 0 0 0 -1 0 0 0 0 0 0 0 0 0
0 0 -6 -2 0 0 0 0 0 0 0 0 0 0 0 0 0 0 0 0 0 0 0 0 0 0 0 0 0 0 0 0 0 0 0 0 0 0 0 0 0 0 0 0
0 0 0 0 0 0 0 0 0 0 0 0 0 0 0 0 0 0 0 0 0 0 0 0 0 0 0 0 0 0 0 0 0 0 0 0 0 0 0 0 0 0 0 0
0 0 0 0 0 0 0 0 0 0 0 0 0 0 0 0 0 0 0 0 0 0 0 0 0 0 0 0 0 0 0 0 0 0 0 0 0 0 0 0 0 0 0 0
0 0 0 0 0 0 0 0 0 0 0 0 0 0 0 0 0 0 0 0 0 0 0 0 0 0 0 0 0 0 0 0 0 0 0 0 0 0 0 0 0 0 0 0
0 0 0 0 0 0 0 0 0 0 0 0 0 0 0 0 0 0 0 0 0 0 0 0 0 0 0 0 0 0 0 0 0 0 0 0 0 0 0 0 0 0 0 0
0 0 0 0 0 0 0 0 0 0 0 0 0 0 0 0 0 0 0 0 0 0 0 0 0 0 0 0 0 0 0 0 0 0 0 0 0 0 0 0 0 0 0 0
0 0 0 0 0 0 0 0 0 0 0 0 0 0 0 0 0 0 0 0 0 0 0 0 0 0 0 0 0 0 0 0 0 0 0 0 0 0 0 0 0 0 0 0
0 0 0 0 0 0 0 0 0 0 0 0 0 0 0 0 0 0 0 0 0 0 0 0 0 0 0 0 0 0 0 0 0 0 0 0 0 0 0 0 0 0 0 0
0 0 0 0 0 0 0 0 0 0 0 0 0 0 0 0 0 0 0 0 0 0 0 0 0 0 0 0 0 0 0 0 0 0 0 0 0 0 0 0 0 0 0 0
0 0 0 0 0 0 0 0 0 0 0 0 0 0 0 0 0 0 0 0 0 0 0 0 0 0 0 0 0 0 0 0 0 0 0 0 0 0 0 0 0 0 0 0
0 0 0 0 0 0 0 0 0 0 0 0 0 0 0 0 0 0 0 0 0 0 0 0 0 0 0 0 0 0 0 0 0 0 0 0 0 0 0 0 0 0 0 0
0 0 0 0 0 0 0 0 0 0 0 0 0 0 0 0 0 0 0 0 0 0 0 0 0 0 0 0 0 0 0 0 0 0 0 0 0 0 0 0 0 0 0 0
0 0 0 0 0 0 0 0 0 0 0 0 0 0 0 0 0 0 0 -1 -1 0 0 0 0 0 0 0 0 0 0 0 0 0 0 0 0 0 0 0 0 0 0 0
0 0 0 0 0 0 0 0 0 0 0 0 0 0 0 0 0 0 0 0 0 0 0 0 0 0 0 0 0 0 0 0 0 0 0 0 0 0 0 0 0 0 0 0
0 0 0 0 0 0 0 0 0 0 0 0 0 0 0 0 0 0 0 0 0 0 0 0 0 0 0 -1 -1 -1 -1 0 0 0 0 0 0 0 0 0 0 0 0 0
0 0 0 0 0 0 0 0 0 0 0 0 0 0 0 0 0 0 0 0 0 0 0 0 0 0 -1 0 0 0 0 0 0 0 0 0 0 0 0 0 0 0 0 0
0 0 0 0 0 0 0 0 0 0 0 0 0 0 0 0 0 0 0 0 0 0 0 0 0 0 0 0 0 0 0 0 0 0 0 0 0 0 0 0 0 0 0 0
0 0 0 0 0 0 0 0 0 0 0 0 0 0 0 0 0 0 0 0 0 0 0 0 0 0 0 0 0 0 0 0 0 0 0 0 0 0 0 0 0 0 0 0
0 0 0 0 0 0 0 0 0 0 0 0 0 0 0 0 0 0 0 0 0 0 0 0 0 0 0 0 0 0 0 0 0 0 0 0 0 0 0 0 0 0 0 0
0 0 0 0 0 0 0 0 0 0 0 0 0 0 0 0 0 0 0 0 0 0 0 0 0 0 0 0 0 0 0 0 0 0 0 0 0 0 0 0 0 0 0 0
0 0 0 0 0 0 0 0 0 0 0 0 0 0 0 0 0 0 0 0 0 0 0 0 0 0 0 0 0 0 0 0 0 0 0 0 0 0 0 0 0 0 0 0
0 0 0 0 0 0 0 0 0 0 0 0 0 0 0 0 0 0 0 0 0 0 0 0 0 0 0 0 0 0 0 0 0 0 0 0 0 0 0 0 0 0 0 0
0 0 0 0 0 0 0 0 0 0 0 0 0 0 0 0 0 0 0 0 0 0 0 0 0 0 0 0 0 0 0 0 0 0 0 0 0 0 0 0 0 0 0 0
0 0 0 0 0 0 0 0 0 0 0 0 0 0 0 0 0 0 0 0 0 0 0 0 0 0 0 0 0 0 0 0 0 0 0 0 0 0 0 0 0 0 0 0
0 0 0 0 0 0 0 0 0 0 0 0 0 0 0 0 0 0 0 0 0 0 0 0 0 0 0 0 0 0 0 0 0 0 0 0 0 0 0 0 0 0 0 0
Wind_Speed
25 21 19 18 17 18 20 17 18 19 20 31 35 36 35 35 35 35 34 34 35 35 36 35 35 34 33 32 31 31 30 29 30 31 30 32 33 34 34 33 35 38 45 44
29 21 18 17 14 13 13 14 13 15 18 21 26 33 35 35 36 36 35 35 35 35 36 35 35 35 34 33 32 31 30 29 31 30 31 31 33 34 34 35 34 36 39 43
33 25 22 23 16 12 11 10 12 14 18 21 22 26 37 37 36 37 37 36 36 36 36 35 34 33 34 33 31 31 30 30 30 31 31 31 32 33 33 34 37 39 38 39
31 29 37 23 17 14 11 8 6 6 6 9 11 14 15 19 36 38 37 37 37 37 38 35 34 32 31 31 30 30 30 30 31 31 30 31 32 32 33 34 35 37 38 39
31 33 25 22 19 17 15 12 7 3 3 8 10 18 19 23 31 37 37 37 38 39 37 36 33 32 30 29 29 29 29 30 31 31 31 31 32 33 34 34 35 36 37 37
29 34 35 25 21 17 17 17 12 9 6 8 13 14 17 15 19 31 37 38 38 39 36 35 33 32 31 29 29 30 30 31 31 31 31 32 32 32 33 33 35 36 36 35
28 29 23 19 19 19 25 21 13 10 8 11 13 13 11 12 13 16 37 38 37 37 35 34 34 33 32 31 30 31 30 30 30 31 31 31 31 32 33 34 34 34 35 34
29 30 31 18 18 21 16 12 11 9 10 10 14 14 14 14 13 11 10 39 37 36 34 33 33 32 32 32 32 32 31 30 30 30 30 30 30 31 32 32 32 32 33 33
22 22 16 15 13 11 10 11 9 9 11 11 13 14 19 18 12 11 12 14 36 34 33 32 32 32 32 32 32 32 31 31 30 30 30 30 29 30 31 31 31 32 33 34
21 19 16 13 11 9 8 9 9 10 13 14 15 14 14 15 14 13 13 9 8 34 32 32 31 31 30 31 32 31 31 31 30 30 30 30 29 29 29 31 31 32 33 34
15 13 13 13 13 11 10 11 12 12 13 15 16 16 13 9 15 17 10 13 9 21 32 31 30 30 30 31 31 31 31 31 31 30 30 30 30 30 29 29 31 31 31 32
19 14 14 15 15 17 17 16 14 14 14 15 16 16 16 13 11 13 13 16 17 10 32 31 30 30 31 30 32 32 31 31 31 31 31 31 30 31 29 28 29 31 30 30
13 14 13 14 15 14 15 15 15 15 16 16 16 17 17 16 13 10 12 17 19 18 29 32 32 32 33 33 32 33 33 32 32 31 31 31 31 31 31 29 27 28 29 30
9 12 14 13 14 13 13 13 15 16 16 16 17 17 18 17 15 14 13 10 11 25 30 33 34 34 35 35 35 34 33 32 31 31 30 30 30 30 29 29 30 30 29 29
8 8 10 13 13 12 12 13 15 17 18 19 19 19 18 19 18 16 14 15 18 15 16 27 34 35 35 35 35 34 33 31 30 30 29 29 29 29 29 29 31 31 32 32
8 8 8 10 11 12 13 14 14 16 19 20 21 21 21 20 19 19 20 19 18 17 16 16 15 11 34 34 34 33 32 31 30 30 30 29 29 29 30 30 30 31 31 32
12 9 8 9 10 12 12 13 14 15 17 20 22 22 23 24 24 24 24 23 22 22 22 20 16 14 28 35 34 32 31 30 29 29 29 29 29 29 30 30 30 30 30 31
5 7 8 9 10 11 12 12 14 14 16 19 22 24 25 27 28 27 28 27 28 28 28 26 23 22 25 34 34 32 31 29 28 28 28 28 29 29 29 30 30 30 31 31
4 6 8 9 10 10 11 12 13 14 15 17 20 23 25 26 28 28 28 30 32 32 30 28 27 28 29 30 31 30 33 30 28 28 28 28 28 28 28 29 29 30 31 31
4 5 7 9 9 10 11 11 12 13 15 16 18 20 23 25 26 29 28 30 30 30 29 31 31 31 31 30 31 30 31 33 32 30 29 29 29 29 30 30 31 31 32 32
3 4 6 7 8 9 9 10 10 12 13 14 16 17 19 22 23 26 28 29 28 28 29 31 32 31 31 31 31 31 30 30 31 32 33 31 31 31 32 32 32 33 34 34
3 3 4 6 7 7 8 8 9 10 11 12 14 15 17 19 21 22 25 26 25 27 28 30 31 31 31 31 30 31 29 29 28 28 30 33 33 32 32 33 33 34 34 34
3 3 3 5 6 5 6 7 6 7 8 10 11 13 14 16 18 21 22 23 24 25 26 28 29 30 31 31 30 30 30 29 28 26 26 28 32 34 34 34 34 35 36 36
4 3 2 4 6 6 4 4 4 5 7 8 9 11 12 14 16 18 19 20 22 23 24 26 27 29 29 29 30 30 29 28 27 25 24 23 23 28 34 36 37 37 37 37
5 4 3 2 3 3 3 3 3 3 5 6 7 8 9 11 13 16 18 19 20 21 22 24 25 26 27 27 28 29 28 27 27 25 25 23 23 23 28 33 36 38 39 39
6 6 5 4 3 3 2 2 1 2 4 5 5 6 7 9 11 14 16 17 18 19 21 22 23 23 24 25 26 27 27 27 27 26 24 23 22 23 26 29 33 37 40 41
8 7 7 5 5 3 3 2 2 4 5 5 5 5 5 6 9 11 14 16 17 19 19 21 23 23 24 24 25 26 27 27 27 26 25 23 23 25 27 30 33 35 38 41
Wind_Direction
22 26 34 35 34 35 37 41 33 24 16 355 345 329 317 312 312 312 315 315 319 320 319 320 320 317 315 312 308 311 303 298 297 293 294 289 287 283 283 280 273 267 263 260
20 29 33 31 31 38 44 41 31 21 16 18 12 347 328 317 312 309 309 311 312 315 317 317 318 318 316 313 308 309 302 297 303 300 294 296 290 288 284 281 280 275 270 259
22 31 31 30 27 44 47 41 33 22 15 17 15 12 338 322 315 311 309 310 310 311 311 311 311 312 315 311 305 306 306 301 303 305 299 298 297 293 288 287 283 278 277 274
25 34 29 35 48 51 43 36 39 11 9 15 12 15 12 13 321 317 315 311 310 310 311 309 308 307 308 312 311 309 310 305 305 306 307 303 302 300 296 293 287 284 282 279
30 26 25 38 45 45 39 15 12 21 30 7 12 15 11 12 358 323 320 314 311 314 311 309 307 308 305 308 313 316 311 312 307 305 306 313 308 307 302 298 292 288 287 285
30 27 31 39 43 50 48 19 52 62 26 1 15 5 10 10 9 358 323 319 314 317 312 310 310 307 308 306 310 312 312 312 313 314 310 312 313 313 312 307 297 293 292 289
29 31 33 45 48 46 35 29 41 34 16 10 12 7 346 350 5 9 334 319 319 317 313 309 311 308 306 306 305 307 307 312 314 318 316 316 320 317 316 314 307 299 296 292
33 33 33 53 35 39 33 26 23 23 15 13 4 356 354 358 5 1 347 325 320 316 315 314 313 311 307 305 304 307 308 310 315 314 316 320 323 324 321 319 314 308 303 297
37 35 37 33 37 33 35 27 21 20 22 10 357 354 1 7 6 3 2 303 321 317 316 314 315 314 311 309 309 308 308 311 311 315 319 317 318 323 324 323 314 309 307 301
33 41 37 32 29 28 28 28 25 39 24 15 8 1 3 6 7 8 13 2 314 323 319 317 317 317 316 316 315 313 312 311 311 313 314 319 322 324 325 324 321 314 309 307
27 24 27 32 30 29 37 44 48 34 25 19 16 18 13 357 10 16 13 24 25 305 323 319 319 319 321 322 323 321 318 316 314 314 314 318 323 324 325 332 330 320 317 312
32 44 36 29 39 50 50 47 38 30 25 29 30 24 20 18 21 22 23 25 26 301 327 326 325 324 322 323 325 324 322 320 318 316 317 318 322 322 330 332 334 336 333 324
43 46 42 39 50 54 43 39 38 36 39 33 30 28 32 34 31 24 26 23 22 23 357 337 331 325 323 320 320 320 321 322 323 325 325 320 320 320 319 322 329 328 327 333
53 49 43 44 40 47 45 42 41 43 41 35 34 39 37 34 34 37 37 34 33 11 354 340 326 326 321 319 318 315 314 318 321 320 321 320 320 317 314 315 315 307 311 317
56 69 48 44 42 43 45 47 41 36 34 36 44 41 40 38 40 39 38 43 44 39 34 6 345 324 318 320 318 316 314 312 315 316 319 319 321 320 318 314 313 306 308 312
62 64 55 40 35 37 42 41 38 35 35 40 40 41 43 45 45 47 50 46 42 40 38 33 32 333 329 329 323 321 316 313 312 314 315 317 319 321 320 318 313 313 313 310
42 42 46 36 35 37 39 41 38 40 43 40 38 41 42 44 47 49 51 49 50 50 47 45 39 37 19 346 334 333 327 323 314 315 317 317 316 318 320 319 316 313 314 312
60 49 48 41 35 39 38 40 43 49 48 44 39 39 41 43 45 48 49 50 50 50 49 47 46 46 42 21 11 353 340 332 327 324 321 322 320 320 321 320 319 317 315 317
64 44 41 41 42 44 40 41 47 52 55 52 45 41 42 43 45 47 50 48 48 47 47 47 47 47 46 43 40 36 7 349 340 334 331 329 326 324 322 322 322 321 319 318
51 42 40 40 44 42 40 46 52 54 57 59 54 49 43 45 45 44 48 48 48 48 47 46 46 47 47 46 45 46 40 24 2 347 338 333 329 326 324 321 319 319 318 317
50 47 39 39 36 38 42 50 54 55 59 62 63 60 52 48 49 45 44 44 48 47 47 46 45 45 45 45 46 46 47 44 36 21 358 342 333 330 326 324 321 319 317 315
17 33 30 31 28 33 42 50 57 60 64 68 68 64 57 51 48 50 47 45 48 46 46 45 43 42 42 42 43 41 42 41 40 38 27 7 352 340 332 328 324 324 322 319
336 352 17 20 20 30 40 46 61 68 71 77 76 70 63 54 49 45 42 46 46 46 44 43 41 41 40 40 39 38 37 35 34 33 31 24 7 350 340 334 329 326 323 321
305 320 331 9 21 24 25 42 64 74 79 82 81 71 65 57 47 45 47 45 43 42 42 40 39 37 38 36 35 33 32 30 28 26 24 22 18 8 352 340 333 329 325 322
277 287 313 337 344 349 7 36 63 81 94 92 88 74 65 55 47 40 40 42 42 39 38 36 35 34 34 33 30 28 26 24 22 20 16 13 9 4 358 349 340 333 327 322
272 265 266 257 282 335 349 20 155 141 133 124 108 87 67 55 44 37 37 38 38 36 34 32 30 29 28 27 25 22 20 17 15 12 9 7 4 359 354 350 344 336 327 321
270 281 276 276 287 295 314 292 222 195 173 160 141 114 80 56 43 33 29 30 32 31 30 28 27 25 24 22 19 17 14 11 9 7 4 0 357 353 350 346 342 337 331 323